Regional Weather Roundup
Issued by NWS State College, PA

Home | Current Version | Previous Version | Text Only | Print | Product List | Glossary On
Versions: 1 2 3 4 5 6 7 8 9 10 11 12 13 14 15 16 17 18 19 20 21 22 23 24 25 26 27 28 29 30 31 32 33 34 35 36 37 38 39 40 41 42 43 44 45 46 47 48 49 50
000
ASUS41 KCTP 262310
RWRCTP

REGIONAL WEATHER ROUNDUP
NATIONAL WEATHER SERVICE STATE COLLEGE PA
700 PM EDT SAT MAY 26 2018

Note: "fair" indicates few or no clouds below 12,000 feet with no
significant weather and/or obstructions to visibility.

* = STATION THAT DOES NOT REPORT PRECIPITATION /E.G. RAIN...SNOW...ETC/
    THUNDER OR FOG.

PAZ002>004-007>009-013>016-020>023-029>032-270000-
WESTERN PENNSYLVANIA

CITY           SKY/WX    TMP DP  RH WIND       PRES   REMARKS
ERIE           CLOUDY    73  59  61 CALM      29.82R
MEADVILLE      FAIR      76  60  57 S5        29.85R
FRANKLIN*      PTSUNNY   75  61  61 CALM      29.87R
NEW CASTLE     FAIR      73  71  93 CALM      29.85R
BEAVER COUNTY  NOT AVBL
BUTLER*        FAIR      76  65  68 CALM      29.86
PITTSBURGH INT PTSUNNY   77  64  64 S6        29.85R
PITTSBURGH     FAIR      75  67  76 SW6       29.84S
INDIANA*       PTSUNNY   81  63  54 CALM      29.89R
LATROBE        NOT AVBL
WASHINGTON CO* FAIR      70  68  93 S6        29.89R
$$

PAZ004>006-010>012-017>019-024>028-033>037-041-042-045-046-049>053-270000-
CENTRAL PENNSYLVANIA

CITY           SKY/WX    TMP DP  RH WIND       PRES   REMARKS
BRADFORD       FAIR      76  55  48 CALM      29.89S
DUBOIS         PTSUNNY   77  61  57 E3        29.87S
CLEARFIELD     CLOUDY    81  59  47 CALM      29.86S
JOHNSTOWN      CLOUDY    78  59  51 NW3       29.89F
ALTOONA        PTSUNNY   83  61  47 CALM      29.86S
STATE COLLEGE  PTSUNNY   82  57  42 CALM      29.84R
WILLIAMSPORT   FAIR      84  61  45 CALM      29.78S
SELINSGROVE    FAIR      80  67  64 SE5       29.80S
FT INDIANTOWN  FAIR      87  58  36 SW3       29.80S
CAPITAL CITY   FAIR      88  60  38 S7        29.81R
HARRISBURG     FAIR      81  66  60 S3        29.80R
YORK           LGT RAIN  75  70  84 NW9       29.85R
$$

PAZ038>040-043-044-047-048-054-055-060>062-067>071-270000-
EASTERN PENNSYLVANIA

CITY           SKY/WX    TMP DP  RH WIND       PRES   REMARKS
SCRANTON       FAIR      81  57  43 E3        29.83R
MOUNT POCONO   FAIR      79  52  38 W3        29.89R
ALLENTOWN      FAIR      85  60  42 N6        29.80S
QUAKERTOWN*    PTCLDY    88  64  45 CALM      29.82S
READING        FAIR      88  66  48 W3        29.79S
LANCASTER      FAIR      87  64  46 W7        29.80S
COATESVILLE    FAIR      79  70  73 CALM      29.86R
POTTSTOWN      FAIR      86  63  45 SW5       29.82S
BLUE BELL      FAIR      82  68  61 SW5       29.83R
DOYLESTOWN     FAIR      87  64  46 W3        29.81R
WILLOW GROVE   NOT AVBL
NORTH PHILA    FAIR      87  67  51 SW15G21   29.82R
PHILADELPHIA   CLOUDY    78  67  68 SE8       29.81S THUNDER
$$




USA.gov is the U.S. government's official web portal to all federal, state and local government web resources and services.